Weather History for KMHE - December, 2011

Change the Weather History Date:

Sunday, December 25, 2011

  Actual Average Record
Temperature  
Mean Temperature 36 °F 19 °F  
Max Temperature 45 °F 28 °F 58 °F (1943)
Min Temperature 26 °F 10 °F -23 °F (1983)
Degree Days  
Heating Degree Days 29 46  
Month to date heating degree days 951 1090  
Since 1 July heating degree days 2313 2658  
Cooling Degree Days 0 0  
Month to date cooling degree days 0 0  
Year to date cooling degree days 994 824  
Moisture  
Dew Point 20 °F    
Average Humidity 56    
Maximum Humidity 75    
Minimum Humidity 37    
Precipitation  
Precipitation 0.00 in 0.00 in 0.67 in (2009)
Month to date precipitation 0.04 0.37  
Year to date precipitation 19.16 21.44  
Snow  
Snow 0.00 in - 8.10 in (2009)
Month to date snowfall T  
Since 1 July snowfall T  
Snow Depth 0.00 in    
Sea Level Pressure  
Sea Level Pressure 30.35 in    
Wind  
Wind Speed 9 mph (West)    
Max Wind Speed 16 mph    
Max Gust Speed 24 mph    
Visibility 10 miles    
Events      
T = Trace of Precipitation, MM = Missing Value Source: NWS Daily Summary

Daily Weather History Graph

Daily Weather History Graph

Search for Another Location

Airport or City:

Trip Planner

Search our weather history database for the weather conditions in past years. The results will help you decide how hot, cold, wet, or windy it might be!

Date:

Astronomy

Dec. 25, 2011 Rise Set
Actual Time 8:04 AM CST 4:59 PM CST
Civil Twilight 7:31 AM CST 5:32 PM CST
Nautical Twilight 6:55 AM CST 6:09 PM CST
Astronomical Twilight 6:20 AM CST 6:44 PM CST
Moon 8:42 AM CST (12/25) 6:24 PM CST (12/25)
Length of Visible Light 10h 01m
Length of Day
8h 55m
New Moon, 1% of the Moon is Illuminated
Dec 25
New Moon
Jan 1
First Quarter
Jan 9
Full
Jan 16
Last Quarter
Jan 23
New

Hourly Weather History & Observations

Time (CST) Temp. Windchill Dew Point Humidity Pressure Visibility Wind Dir Wind Speed Gust Speed Precip Events Conditions
12:53 AM 35.1 °F 26.4 °F 19.0 °F 52% 30.29 in 10.0 mi WNW 12.7 mph - N/A   Clear
1:53 AM 33.1 °F 23.4 °F 19.0 °F 56% 30.29 in 10.0 mi WNW 13.8 mph - N/A   Clear
2:53 AM 34.0 °F 24.2 °F 19.9 °F 56% 30.30 in 10.0 mi WNW 15.0 mph - N/A   Clear
3:53 AM 32.0 °F 23.0 °F 19.9 °F 61% 30.33 in 10.0 mi NW 11.5 mph - N/A   Clear
4:53 AM 30.9 °F 21.2 °F 19.9 °F 64% 30.35 in 10.0 mi NW 12.7 mph - N/A   Clear
5:53 AM 30.9 °F 21.2 °F 19.9 °F 64% 30.38 in 10.0 mi WNW 12.7 mph - N/A   Clear
6:53 AM 28.9 °F 19.8 °F 19.9 °F 69% 30.41 in 10.0 mi WNW 10.4 mph - N/A   Clear
7:53 AM 27.0 °F 17.3 °F 19.9 °F 75% 30.41 in 10.0 mi WNW 10.4 mph - N/A   Clear
8:53 AM 28.0 °F 20.0 °F 19.9 °F 72% 30.43 in 10.0 mi WNW 8.1 mph - N/A   Clear
9:53 AM 34.0 °F 27.2 °F 21.9 °F 61% 30.46 in 10.0 mi NW 8.1 mph - N/A   Clear
10:53 AM 39.0 °F 33.4 °F 23.0 °F 53% 30.46 in 10.0 mi NNW 8.1 mph - N/A   Clear
11:53 AM 41.0 °F 35.8 °F 21.9 °F 47% 30.45 in 10.0 mi NNW 8.1 mph - N/A   Clear
12:53 PM 43.0 °F - 21.0 °F 42% 30.42 in 10.0 mi Calm Calm - N/A   Clear
1:53 PM 44.1 °F 40.8 °F 19.9 °F 38% 30.39 in 10.0 mi WNW 5.8 mph - N/A   Clear
2:53 PM 45.0 °F 41.2 °F 19.0 °F 36% 30.38 in 10.0 mi WSW 6.9 mph - N/A   Clear
3:53 PM 43.0 °F 40.3 °F 21.0 °F 42% 30.37 in 10.0 mi WSW 4.6 mph - N/A   Clear
4:53 PM 37.9 °F 34.4 °F 19.9 °F 48% 30.35 in 10.0 mi South 4.6 mph - N/A   Clear
5:53 PM 34.0 °F 26.6 °F 19.0 °F 54% 30.32 in 10.0 mi South 9.2 mph - N/A   Clear
6:53 PM 32.0 °F 23.6 °F 19.0 °F 59% 30.30 in 10.0 mi South 10.4 mph - N/A   Clear
8:53 PM 37.0 °F 28.5 °F 19.0 °F 48% 30.22 in 10.0 mi South 13.8 mph - N/A   Clear
9:53 PM 34.0 °F 25.5 °F 18.0 °F 52% 30.18 in 10.0 mi South 11.5 mph - N/A   Clear
11:53 PM 34.0 °F 26.6 °F 19.9 °F 56% 30.10 in 10.0 mi South 9.2 mph - N/A   Clear